Weather Service Report


116 
ASUS41 KBTV 221930
RWRBTV
VERMONT REGIONAL WEATHER ROUNDUP
NATIONAL WEATHER SERVICE BURLINGTON VT
200 PM EST WED FEB 22 2017

NOTE: "FAIR" INDICATES FEW OR NO CLOUDS BELOW 12,000 FEET WITH NO 
SIGNIFICANT WEATHER AND/OR OBSTRUCTIONS TO VISIBILITY.

* THESE REPORTS ARE NOT UNDER NWS QUALITY CONTROL AND/OR DO NOT
  REPORT WEATHER SUCH AS PRECIPITATION AND FOG.

VTZ001>019-222000-
_____VERMONT_____

  
CITY           SKY/WX    TMP DP  RH WIND       PRES   REMARKS
BURLINGTON     PTSUNNY   52  34  50 VRB3      29.87S                  
MONTPELIER     SUNNY     50  35  56 E7        29.89F                  
MORRISVILLE    SUNNY     53  29  39 CALM      29.87F                  
ST. JOHNSBURY*   N/A     49  31  49 MISG      29.85F                  
LYNDONVILLE*   FAIR      46  32  58 S3        29.88F                  
MIDDLEBURY*    FAIR      53  23  30 S9        29.87F                  
RUTLAND*       SUNNY     52  36  54 N8        29.88F                  
SPRINGFIELD    SUNNY     53  32  44 CALM      29.88F                  
HIGHGATE*      FAIR      45  32  60 CALM      29.89S                  
NEWPORT*       FAIR      47  32  56 CALM      29.86S                  
BENNINGTON     SUNNY     56  33  42 CALM      29.88F                  
SUTTON*          N/A     46 N/A N/A MISG        N/A                   
MT. MANSFIELD*   N/A     37 N/A N/A W8          N/A  WCI  31          

_____LAKE CHAMPLAIN_____

  
CITY           SKY/WX    TMP DP  RH WIND       PRES   REMARKS
BURTON ISLAND*   N/A     39  32  75 S7          N/A                   
COLCHESTER RF*   N/A     43  34  70 S14         N/A                   
DIAMOND ISL*     N/A     48  32  53 SW6         N/A                   

$$

NYZ007-026>031-035-052-083-087-222000-
_____NORTHERN NEW YORK_____

  
CITY           SKY/WX    TMP DP  RH WIND       PRES   REMARKS
PLATTSBURGH    SUNNY     46  32  58 SE6       29.88S                  
SARANAC LAKE   MOSUNNY   51  35  54 SW6       29.82F                  
MASSENA        PTSUNNY   47  36  65 E6        29.87F                  
OGDENSBURG*    FAIR      51  38  62 CALM      29.86S                  
POTSDAM*       SUNNY    N/A N/A N/A NW6       29.85F                  
WATERTOWN      PTSUNNY   56  42  59 W7        29.83F                  
FT DRUM        CLOUDY    59  43  54 W7        29.82F                  
ALBANY         MOSUNNY   55  34  45 S7        29.90F                  
GLENS FALLS    SUNNY     54  35  48 SE8       29.88F                  

$$
NHZ002-005-011-222000-
_____NEW HAMPSHIRE_____

  
CITY           SKY/WX    TMP DP  RH WIND       PRES   REMARKS
LEBANON        MOSUNNY   53  35  50 N5        29.88F                  
KEENE          SUNNY     57  37  47 SW3       29.87F                  
MT WASHINGTON  MOSUNNY   37   1  22 NW25        N/A  WCI  26          
PLYMOUTH       FAIR      54  34  47 W3        29.87S                  
WHITEFIELD     MOSUNNY   49  31  49 CALM      29.87F                  

$$

_____REGIONAL QUEBEC LOCATIONS_____

  
CITY           SKY/WX    TMP DP  RH WIND       PRES   REMARKS
MONTREAL       PTSUNNY   41  34  75 VRB2      29.90F                  
QUEBEC CITY    CLOUDY    37  30  75 SW8       29.90F WCI  31          
SHERBROOKE     MOSUNNY   46  32  57 VRB2      29.86F                  

_____REGIONAL ONTARIO LOCATIONS_____

  
CITY           SKY/WX    TMP DP  RH WIND       PRES   REMARKS
OTTAWA         CLOUDY    39  36  87 E5        29.86F                  

______KEY______
VSB  - VISIBILITY IN MILES
WCI  - WIND CHILL INDEX
HX   - HEAT INDEX
$$
NNNN
  

Return to Home page


Western Regional Climate Center, wrcc@dri.edu